Location: Feucherolles
(48.8700°N, 1.9740°E)
Time: 13:45:16
(UTC+00:00)

Daily predictions for brighter satellites

Satellite Brightness Start Highest point End
(mag) Time Altitude Azimuth Time Altitude Azimuth Time Altitude Azimuth
Cosmos 1980 Rocket 3.5 20:27:49 10° NNW 20:32:52 31° NE 20:37:52 10° ESE
Cosmos 1697 Rocket 3.2 20:27:56 10° NNW 20:33:26 51° NE 20:38:53 10° SE
USA 32 4.1 20:30:16 10° S 20:35:28 77° E 20:40:42 10° N
SL-8 R/B 3.9 20:31:06 10° W 20:35:51 62° SSW 20:40:36 10° ESE
TSX-5 4.5 20:33:55 10° SSW 20:38:28 67° ESE 20:44:26 10° NE
SPOT 1/Viking Rocket 3.9 20:36:27 10° S 20:41:34 67° WSW 20:46:45 10° NNW
COSMOS 2406 4.3 20:38:47 10° SSE 20:43:28 26° ESE 20:48:10 10° NE
Cosmos 2154 Rocket 4.5 20:37:45 10° N 20:43:45 47° ENE 20:49:41 10° SSE
X-37B 1.1 20:41:37 10° WSW 20:44:12 33° S 20:46:47 10° ESE
Spot 2 Rocket 3.9 20:39:29 10° SE 20:44:24 51° ENE 20:49:22 10° N
Cosmos 1025 Rocket 4.1 20:41:04 10° SSW 20:45:13 49° WNW 20:49:26 10° N
SPOT 5 2.9 20:50:05 10° SSE 20:54:20 56° ENE 20:58:35 10° N
Cosmos 2084 Rocket 3.7 20:52:12 10° NW 20:56:02 54° NE 20:59:59 10° ESE
Cosmos 1703 3.3 20:52:36 10° S 20:56:23 57° E 21:00:10 10° NNE
RESURS DK-1 2.5 20:53:00 10° NNW 20:57:08 72° WSW 21:01:15 10° SSE
Cosmos 1452 Rocket 3.5 20:53:53 10° SSW 20:59:08 81° ESE 21:04:26 10° NNE
Cosmos 1833 Rocket 2.8 20:53:53 10° S 20:59:19 55° ESE 21:04:49 10° NE
Terra 2.3 20:56:30 10° SE 21:01:03 48° ENE 21:05:39 10° N
CZ-4B R/B 2.2 20:58:58 10° N 21:01:44 45° WNW 21:04:31 10° SSW
Helios 1A Rocket 3.0 21:01:06 10° SSE 21:05:07 66° ENE 21:09:12 10° N
Cosmos 1110 Rocket 4.1 20:59:58 10° S 21:05:09 60° ESE 21:10:23 10° NNE
FALCON 9 DEB 4.1 21:02:05 10° WNW 21:05:13 43° N 21:08:22 10° E
Cosmos 2322 Rocket 4.4 21:04:00 10° N 21:07:33 17° NE 21:11:06 10° ENE
ERS-1 Rocket 3.1 21:02:35 10° SSE 21:07:35 69° ENE 21:12:36 10° N
Resurs 01 Rocket 3.3 21:04:18 10° SSW 21:08:13 30° W 21:12:10 10° NNW
Cosmos 2228 2.9 21:06:53 10° N 21:11:09 81° E 21:15:15 11° SSE
Cosmos 2058 Rocket 4.4 21:08:09 10° N 21:11:57 27° ENE 21:15:19 12° SE
Cosmos 2184 Rocket 4.1 21:08:52 10° N 21:15:05 81° W 21:21:17 10° S
Cosmos 1825 4.4 21:15:52 10° E 21:16:36 10° E 21:17:20 10° ENE
Lacrosse 5 3.9 21:14:03 10° W 21:17:20 17° WSW 21:20:36 10° SSW
Cosmos 1408 4.1 21:16:14 14° SE 21:18:02 20° E 21:20:37 10° NE
Cosmos 968 Rocket 3.8 21:17:09 10° NNW 21:22:17 56° ENE 21:26:36 15° SE
Cosmos 1328 4.0 21:22:05 12° S 21:25:39 53° E 21:29:34 10° NNE
USA 276 2.3 21:24:08 10° W 21:27:10 68° N 21:30:11 10° E
H-2A R/B 4.5 21:27:01 10° N 21:30:39 25° WNW 21:34:20 10° WSW
Cosmos 2360 4.4 21:25:13 10° NNW 21:30:55 68° WSW 21:35:50 14° SSE
SJ 16-02 3.8 21:29:08 10° NNE 21:31:11 13° NE 21:33:13 10° ENE
Cosmos 1867 3.8 21:26:28 10° NW 21:31:57 68° NE 21:36:30 15° SE
Cosmos 2082 Rocket 2.6 21:27:48 10° S 21:33:11 44° ESE 21:38:34 10° NE
USA 267 4.0 21:31:41 10° ENE 21:37:15 29° SE 21:42:49 10° S
ARIANE 5 R/B 2.6 21:35:43 16° SSE 21:39:11 79° ENE 21:43:38 10° NNW
Cosmos 1606 Rocket 3.6 21:35:31 10° NNW 21:39:51 79° W 21:43:23 15° S
GP-B 3.9 21:36:45 10° NNE 21:40:52 36° E 21:43:35 19° SE
Cosmos 2341 Rocket 4.2 21:35:54 10° N 21:42:10 60° ENE 21:47:01 17° SSE
Cosmos 2360 Rocket 4.3 21:39:45 10° N 21:43:42 19° NE 21:47:38 10° E
Meteor 1-21 Rocket 4.4 21:38:18 10° SSW 21:43:53 79° W 21:49:38 10° N
Cosmos 192 4.3 21:43:29 10° SSW 21:48:20 72° ESE 21:53:14 10° NNE
Okean 1-7 Rocket 4.4 21:58:40 22° SE 22:00:58 36° E 22:05:05 10° NNE
SAR-Lupe-1 4.3 21:58:27 10° NNE 22:01:57 49° E 22:03:39 26° SSE
Cosmos 1726 Rocket 3.9 21:58:17 10° NNW 22:02:33 60° W 22:05:41 18° S
Cosmos 1892 2.7 22:02:06 24° SSE 22:04:10 60° E 22:07:54 10° NNE
Cosmos 2181 Rocket 4.1 22:07:21 20° SSE 22:11:42 60° E 22:17:50 10° NNE
Cosmos 1633 4.1 22:12:09 19° ESE 22:12:55 20° E 22:15:32 10° NE
USA 234 3.7 22:06:29 10° ESE 22:12:57 63° NNE 22:19:25 10° NW
Cosmos 1697 Rocket 4.0 22:12:19 10° NW 22:17:09 30° WSW 22:21:16 13° SSW
Cosmos 1980 Rocket 2.6 22:11:38 10° NW 22:17:13 57° WSW 22:20:52 21° S
SL-16 R/B 2.9 22:11:44 10° NNW 22:17:15 48° NE 22:21:23 17° ESE
Cosmos 1486 Rocket 4.1 22:12:38 10° NNW 22:17:52 73° ENE 22:21:05 24° SSE
Cosmos 1992 Rocket 4.2 22:15:18 22° S 22:18:33 53° ESE 22:23:39 10° NNE
X-37B 2.7 22:17:30 10° WSW 22:18:13 13° SW 22:18:13 13° SW
Cosmos 1812 Rocket 4.5 22:15:42 10° N 22:19:53 37° ENE 22:22:08 22° SE
Cosmos 1932 4.4 22:14:07 10° SSW 22:20:13 64° ESE 22:26:30 10° NE
Cosmos 2369 4.3 22:15:17 10° NW 22:20:47 48° WSW 22:24:30 20° S
TIMED 4.5 22:21:54 17° SSW 22:25:17 87° WNW 22:29:41 10° NNE
COSMOS 2406 3.8 22:21:41 10° SW 22:27:23 60° WNW 22:33:06 10° NNE
Cosmos-2242 4.0 22:25:18 10° N 22:29:14 36° ENE 22:31:12 23° ESE
ATLAS 5 CENTAUR R/B 1.3 22:29:23 29° S 22:31:04 54° SE 22:35:08 10° NE
Cosmos 1869 3.2 22:29:34 10° N 22:33:28 86° E 22:35:09 33° SSE
Cosmos 807 4.5 22:30:45 10° N 22:33:47 50° ENE 22:34:24 40° ESE
Cosmos 1602 Rocket 4.0 22:32:12 29° SE 22:33:54 44° E 22:38:01 10° NNE
In-Cosmos 22 Rocket 4.1 22:30:23 21° S 22:34:14 86° E 22:39:42 10° NNE
ERS-2 4.4 22:35:54 10° ENE 22:37:21 12° E 22:37:40 12° E
Terra 3.6 22:35:21 10° SW 22:39:02 24° W 22:42:53 10° NW
Meteor 1-27 4.2 22:33:42 10° NNW 22:39:17 78° W 22:42:35 25° S
FALCON 9 DEB 2.9 22:38:22 10° WNW 22:41:36 63° SSW 22:42:17 48° SSE
ALOS 2 3.3 22:39:48 24° SE 22:42:00 43° ENE 22:46:10 10° N
ASTEX 1 3.8 22:37:21 10° N 22:42:18 60° W 22:45:49 19° SSW
Cosmos 1354 Rocket 4.3 22:40:49 10° NNW 22:46:07 64° ENE 22:49:06 25° SE
BREEZE-M DEB (TANK) 3.5 22:44:44 10° W 22:47:47 90° W 22:58:52 10° E
SL-8 Rocket 4.4 22:42:48 10° NNW 22:48:52 56° W 22:53:01 21° SSW
Cosmos 2058 Rocket 4.3 22:45:59 10° NNW 22:49:59 34° W 22:52:35 18° SW
ADEOS Rocket 3.8 22:45:43 22° SE 22:50:47 65° ENE 22:58:28 10° N
Cosmos 1825 2.3 22:49:40 30° SSW 22:51:21 68° WNW 22:55:06 10° N
Cosmos 1408 4.2 22:50:12 14° SW 22:52:33 28° WNW 22:55:35 10° NNW
Cosmos 2322 Rocket 2.5 22:47:09 10° NNW 22:52:49 62° ENE 22:56:24 23° SE
Cosmos 1503 Rocket 4.0 22:50:34 10° NNW 22:55:55 89° ENE 22:58:35 30° SSE
Cosmos 1626 Rocket 3.6 22:54:43 28° SSW 22:56:57 73° W 23:01:20 10° N
USA 276 2.0 22:59:56 10° WNW 23:02:50 61° SW 23:02:50 61° SW
Cosmos 2278 4.4 22:58:05 10° NW 23:03:27 43° WSW 23:06:17 25° SSW
Cosmos 1777 Rocket 4.3 22:58:40 10° NNW 23:03:55 60° ENE 23:06:53 25° SE
Cosmos 2333 Rocket 3.4 23:02:32 10° NNW 23:07:54 37° NE 23:12:52 12° ESE
Cosmos 1825 Rocket 4.1 23:08:18 33° SE 23:09:40 45° E 23:13:50 10° NNE
SJ 16-02 1.3 23:06:04 10° NNW 23:10:31 80° ENE 23:12:19 36° SSE
Gbstr 26 Del rocket 3.9 23:11:09 30° SE 23:11:09 30° SE 23:15:21 10° ENE
Cosmos 1340 Rocket 3.9 23:13:04 28° ESE 23:13:56 31° E 23:17:27 10° NNE
Cosmos 2082 Rocket 3.6 23:12:04 10° WSW 23:17:22 38° NW 23:22:40 10° NNE
Meteor 2-20 4.4 23:13:52 27° S 23:17:23 89° E 23:23:31 10° N
H-2A R/B 3.4 23:15:12 10° NNE 23:19:26 77° ESE 23:20:55 39° S
USA 267 3.2 23:14:16 10° NE 23:20:52 85° SSE 23:27:25 10° SW
Cosmos 2221 3.6 23:22:18 10° N 23:26:21 36° ENE 23:28:17 24° ESE
Cosmos 1606 2.7 23:23:20 10° NNW 23:27:12 78° W 23:28:16 46° S
Cosmos 2058 3.0 23:26:08 41° SSE 23:27:26 64° E 23:31:35 10° NNE
Cosmos 2360 Rocket 2.3 23:23:00 10° NNW 23:28:43 75° ENE 23:31:59 26° SE
Spot 4 4.5 23:27:39 29° SSW 23:29:40 45° W 23:34:17 10° NNW
Cosmos 1934 Rocket 4.1 23:23:39 10° N 23:29:45 68° ENE 23:33:06 28° SSE
Meteor 2-2 Rocket 4.4 23:35:27 10° NNW 23:41:30 89° W 23:44:36 31° S
Cosmos 44 3.7 23:41:21 35° SSE 23:42:16 39° ESE 23:46:26 10° NE
Cosmos 2237 4.4 23:38:43 10° NW 23:44:21 60° WSW 23:46:53 32° S
Meteor 2-20 Rocket 4.5 23:42:26 28° SSW 23:45:49 79° W 23:51:58 10° N
Cosmos 1633 4.0 23:45:56 21° WSW 23:47:15 28° WNW 23:50:17 10° NNW
Cosmos 1758 Rocket 4.4 23:45:44 26° SW 23:47:47 44° WNW 23:52:01 10° N
